Regional Weather Roundup
Issued by NWS

Home | Current Version | Previous Version | Graphics & Text | Print | Product List | Glossary Off
Versions: 1 2 3 4 5 6 7 8 9 10 11 12 13 14 15 16 17 18 19 20 21 22 23 24 25 26 27 28 29 30 31 32 33 34 35 36 37 38 39 40 41 42 43 44 45 46 47 48 49 50

000
ASUS44 KMEG 212110
RWRTN
TENNESSEE HOURLY STATE WEATHER ROUNDUP
NATIONAL WEATHER SERVICE MEMPHIS TN
300 PM CST SAT JAN 21 2017

TNZ002-004-019-021-049-052-054-088>092-212200-
WEST TENNESSEE

CITY           SKY/WX    TMP DP  RH WIND       PRES   REMARKS
MEMPHIS INTL   PTSUNNY   71  52  50 S10G16    29.56F
NWS MEMPHIS      N/A     70 N/A N/A MISG        N/A
JACKSON        MOSUNNY   69  50  50 S7        29.57F
DYERSBURG      CLOUDY    70  50  49 S8        29.56F
UNION CITY     SUNNY     68  46  45 CALM      29.56F
PARIS          SUNNY     66  50  55 CALM      29.59S
HUNTINGDON     SUNNY     70  50  49 S13       29.58S
$$

TNZ008-025-027-028-033-062-065-066-212200-
NORTH MIDDLE TENNESSEE

CITY           SKY/WX    TMP DP  RH WIND       PRES   REMARKS
NASHVILLE      MOSUNNY   68  48  48 S9        29.62F
PORTLAND       SUNNY     68  48  49 SE9G16    29.62S
CLARKSVILLE    SUNNY     71  47  42 S8        29.59S
SMYRNA         MOSUNNY   68  51  54 SE10G16   29.63F
GALLATIN       SUNNY     68  50  52 S10       29.65S
CROSSVILLE     SUNNY     59  47  64 VRB6      29.67R
$$

TNZ061-075-076-078-094-096-097-212200-
SOUTH MIDDLE TENNESSEE

CITY           SKY/WX    TMP DP  RH WIND       PRES   REMARKS
TULLAHOMA      MOSUNNY   64  48  55 S6        29.65F
WINCHESTER     MOSUNNY   64  50  59 SE5       29.65S
MCMINNVILLE    MOSUNNY   64  52  63 E6        29.64F
COLUMBIA       SUNNY     68  54  60 S7        29.59F
SHELBYVILLE    PTSUNNY   66  52  59 SE6       29.65S
$$

TNZ017-018-042-046-047-212200-
NORTHEAST TENNESSEE

CITY           SKY/WX    TMP DP  RH WIND       PRES   REMARKS
TRI CITIES     LGT RAIN  55  52  89 VRB3      29.67F
ELIZABETHTON   PTSUNNY   55  50  82 E6        29.68F
$$

TNZ012-013-036-069-073-074-212200-
CENTRAL EAST TENNESSEE

CITY           SKY/WX    TMP DP  RH WIND       PRES   REMARKS
KNOXVILLE      MOSUNNY   61  51  70 NE10      29.62R
OAK RIDGE      SUNNY     62  51  67 CALM      29.65F
GATLINBURG     MOSUNNY   54  52  94 NW5       29.62R
MORRISTOWN     MOSUNNY   55  54  94 NE8       29.65R
JACKSBORO      MOSUNNY   59  52  77 N5        29.69F
$$

TNZ083-085-099-212200-
SOUTHEAST TENNESSEE

CITY           SKY/WX    TMP DP  RH WIND       PRES   REMARKS
CHATTANOOGA    MOSUNNY   65  52  62 W3        29.64R
$$

SKY/WX REPORTED AS FAIR MEANS FEW OR NO CLOUDS BELOW
12 THOUSAND FEET.




USA.gov is the U.S. government's official web portal to all federal, state and local government web resources and services.